This is the latest recevied weather packets stored in our database for station/object KC7UNY-13. If no packets are shown the sender has not sent any weather packets the latest 10 day(s).
| Time | Temp. | Humidity | Pressure | Rain* | Wind** | Luminosity | Snow |
|---|---|---|---|---|---|---|---|
| 1777785025 | 26.11° C | 24% | 1011.2 hPa | 0 mm | - | 0 W/m² | - |
| 1777784720 | 25.56° C | 24% | 1011 hPa | 0 mm | - | 0 W/m² | - |
| 1777784418 | 25.56° C | 25% | 1011.1 hPa | 0 mm | - | 0 W/m² | - |
| 1777784115 | 25.56° C | 26% | 1010.8 hPa | 0 mm | - | 0 W/m² | - |
| 1777783812 | 25.56° C | 26% | 1010.8 hPa | 0 mm | - | 0 W/m² | - |
| 1777783508 | 25° C | 27% | 1010.7 hPa | 0 mm | - | 0 W/m² | - |
| 1777783206 | 25.56° C | 27% | 1010.6 hPa | 0 mm | - | 0 W/m² | - |
| 1777782902 | 25° C | 27% | 1010.4 hPa | 0 mm | - | 0 W/m² | - |
| 1777782598 | 25° C | 29% | 1010.3 hPa | 0 mm | - | 0 W/m² | - |
| 1777782295 | 25.56° C | 28% | 1010.2 hPa | 0 mm | - | 0 W/m² | - |
| 1777781992 | 25.56° C | 29% | 1010.2 hPa | 0 mm | - | 0 W/m² | - |
| 1777781689 | 25.56° C | 29% | 1010.2 hPa | 0 mm | - | 0 W/m² | - |
| 1777781387 | 25.56° C | 28% | 1010 hPa | 0 mm | - | 0 W/m² | - |
| 1777781083 | 26.11° C | 27% | 1010.1 hPa | 0 mm | - | 0 W/m² | - |
| 1777780781 | 26.11° C | 27% | 1010 hPa | 0 mm | - | 0 W/m² | - |
| 1777780477 | 26.11° C | 27% | 1009.9 hPa | 0 mm | - | 0 W/m² | - |
| 1777780175 | 26.67° C | 26% | 1009.7 hPa | 0 mm | - | 0 W/m² | - |
| 1777779872 | 26.67° C | 25% | 1009.6 hPa | 0 mm | - | 0 W/m² | - |
| 1777779569 | 26.11° C | 26% | 1009.8 hPa | 0 mm | - | 0 W/m² | - |
| 1777779267 | 26.67° C | 26% | 1009.7 hPa | 0 mm | - | 0 W/m² | - |
| 1777778965 | 26.67° C | 26% | 1009.5 hPa | 0 mm | - | 0 W/m² | - |
| 1777778663 | 26.67° C | 26% | 1009.5 hPa | 0 mm | - | 0 W/m² | - |
| 1777778360 | 26.67° C | 26% | 1009.6 hPa | 0 mm | - | 0 W/m² | - |
| 1777778058 | 27.22° C | 25% | 1009.5 hPa | 0 mm | - | 0 W/m² | - |
| 1777777754 | 27.22° C | 24% | 1009.7 hPa | 0 mm | - | 0 W/m² | - |
* Rain latest hour (hover to see other rain measurements)
** Current wind speed in m/s (hover to see current wind gust speed)